| time (UTC) | temp F | wind direction | speed knots | gust knots | rain 1hr in | rain 24hr in | rain mn in | humidity % | barometer mb |
| 20260503224507 | 60 | 247 | 0.0 | 0.0 | 0.00 | 0.00 | 0.00 | 58 | 1021.0 |
| 20260503223041 | 61 | 231 | 0.0 | 4.3 | 0.00 | 0.00 | 0.00 | 56 | 1021.0 |
| 20260503221527 | 61 | 201 | 0.9 | 3.5 | 0.00 | 0.00 | 0.00 | 56 | 1021.0 |
| 20260503220056 | 60 | 255 | 0.0 | 4.3 | 0.00 | 0.00 | 0.00 | 57 | 1021.0 |
| 20260503214529 | 60 | 216 | 0.0 | 3.5 | 0.00 | 0.00 | 0.00 | 59 | 1020.9 |
| 20260503213009 | 60 | 205 | 0.9 | 5.2 | 0.00 | 0.00 | 0.00 | 61 | 1021.0 |
| 20260503211545 | 59 | 186 | 0.0 | 2.6 | 0.00 | 0.00 | 0.00 | 62 | 1021.0 |
| 20260503210025 | 59 | 200 | 0.0 | 3.5 | 0.00 | 0.00 | 0.00 | 64 | 1020.9 |
| 20260503204505 | 59 | 188 | 0.9 | 5.2 | 0.00 | 0.00 | 0.00 | 66 | 1020.9 |
| 20260503203052 | 59 | 191 | 0.9 | 4.3 | 0.00 | 0.00 | 0.00 | 66 | 1021.1 |
| 20260503201521 | 59 | 162 | 2.6 | 7.0 | 0.00 | 0.00 | 0.00 | 68 | 1020.9 |
| 20260503200057 | 59 | 195 | 0.9 | 6.1 | 0.00 | 0.00 | 0.00 | 68 | 1020.9 |
| 20260503194535 | 59 | 250 | 2.6 | 7.0 | 0.00 | 0.00 | 0.00 | 65 | 1020.9 |
| 20260503193011 | 60 | 152 | 1.7 | 6.1 | 0.00 | 0.00 | 0.00 | 64 | 1020.8 |
| 20260503191553 | 59 | 178 | 2.6 | 7.0 | 0.00 | 0.00 | 0.00 | 63 | 1020.8 |
| 20260503190030 | 60 | 108 | 4.3 | 7.8 | 0.00 | 0.00 | 0.00 | 61 | 1020.6 |
| 20260503184503 | 61 | 219 | 1.7 | 5.2 | 0.00 | 0.00 | 0.00 | 53 | 1020.5 |
| 20260503183041 | 62 | 349 | 2.6 | 7.0 | 0.00 | 0.00 | 0.00 | 47 | 1020.2 |
| 20260503181516 | 62 | 348 | 5.2 | 8.7 | 0.00 | 0.00 | 0.00 | 48 | 1020.0 |
| 20260503174531 | 63 | 355 | 6.1 | 9.6 | 0.00 | 0.00 | 0.00 | 47 | 1020.1 |
| 20260503173013 | 64 | 340 | 6.1 | 11.3 | 0.00 | 0.00 | 0.00 | 47 | 1019.8 |
| 20260503171549 | 64 | 339 | 7.0 | 11.3 | 0.00 | 0.00 | 0.00 | 45 | 1019.8 |
| 20260503081551 | 64 | 307 | 9.6 | 16.5 | 0.00 | 0.00 | 0.00 | 45 | 1021.3 |
| 20260503071522 | 61 | 6 | 9.6 | 17.4 | 0.00 | 0.00 | 0.00 | 51 | 1021.2 |
| 20260503054508 | 55 | 273 | 8.7 | 16.5 | 0.00 | 0.00 | 0.00 | 61 | 1021.1 |
| 20260503053046 | 53 | 261 | 7.8 | 13.0 | 0.00 | 0.00 | 0.00 | 62 | 1021.0 |
| 20260503051522 | 52 | 314 | 8.7 | 13.0 | 0.00 | 0.00 | 0.00 | 63 | 1021.0 |
| 20260503050100 | 52 | 331 | 10.4 | 16.5 | 0.00 | 0.00 | 0.00 | 61 | 1020.9 |
| 20260503050002 | 52 | 324 | 10.4 | 16.5 | 0.00 | 0.00 | 0.00 | 61 | 1020.9 |
| 20260503044543 | 51 | 295 | 11.3 | 17.4 | 0.00 | 0.00 | 0.00 | 62 | 1020.8 |
| 20260503043016 | 50 | 286 | 10.4 | 13.9 | 0.00 | 0.00 | 0.00 | 64 | 1020.9 |
| 20260503041554 | 50 | 295 | 7.8 | 13.0 | 0.00 | 0.00 | 0.00 | 64 | 1020.9 |
| 20260503040030 | 49 | 261 | 8.7 | 13.0 | 0.00 | 0.00 | 0.00 | 65 | 1020.9 |
| 20260503034510 | 49 | 274 | 7.8 | 14.8 | 0.00 | 0.00 | 0.00 | 65 | 1020.9 |
| 20260503033044 | 49 | 326 | 8.7 | 14.8 | 0.00 | 0.00 | 0.00 | 66 | 1020.8 |
| 20260503031524 | 48 | 289 | 8.7 | 14.8 | 0.00 | 0.00 | 0.00 | 67 | 1020.9 |
| 20260503030058 | 48 | 298 | 9.6 | 15.6 | 0.00 | 0.00 | 0.00 | 67 | 1021.0 |
| 20260503030007 | 48 | 282 | 9.6 | 15.6 | 0.00 | 0.00 | 0.00 | 67 | 1021.0 |
| 20260503024537 | 48 | 314 | 8.7 | 12.2 | 0.00 | 0.00 | 0.00 | 67 | 1021.0 |
| 20260503023018 | 49 | 313 | 7.0 | 11.3 | 0.00 | 0.00 | 0.00 | 66 | 1021.2 |
| 20260503021543 | 49 | 332 | 7.0 | 11.3 | 0.00 | 0.00 | 0.00 | 66 | 1021.3 |
| 20260503020024 | 48 | 271 | 7.0 | 10.4 | 0.00 | 0.00 | 0.00 | 67 | 1021.4 |
| 20260503014610 | 48 | 273 | 7.0 | 11.3 | 0.00 | 0.00 | 0.00 | 68 | 1021.5 |
| 20260503013038 | 47 | 273 | 7.8 | 11.3 | 0.00 | 0.00 | 0.00 | 69 | 1021.5 |
| 20260503011514 | 47 | 238 | 7.8 | 12.2 | 0.00 | 0.00 | 0.00 | 70 | 1021.8 |
| 20260503010051 | 47 | 275 | 7.8 | 12.2 | 0.00 | 0.00 | 0.00 | 70 | 1021.8 |
| 20260503004533 | 46 | 323 | 8.7 | 12.2 | 0.00 | 0.00 | 0.00 | 71 | 1022.0 |
| 20260503003007 | 47 | 270 | 9.6 | 15.6 | 0.00 | 0.00 | 0.00 | 71 | 1022.1 |
| 20260503001556 | 46 | 329 | 7.8 | 12.2 | 0.00 | 0.00 | 0.00 | 73 | 1022.0 |
| 20260503000021 | 47 | 264 | 8.7 | 13.0 | 0.00 | 0.00 | 0.00 | 73 | 1022.4 |
| 20260502234559 | 48 | 265 | 7.8 | 13.0 | 0.00 | 0.00 | 0.00 | 71 | 1022.6 |
| 20260502234501 | 48 | 294 | 7.8 | 13.0 | 0.00 | 0.00 | 0.00 | 71 | 1022.7 |
| 20260502233034 | 48 | 282 | 7.8 | 11.3 | 0.00 | 0.00 | 0.00 | 72 | 1022.8 |
| 20260502231517 | 48 | 271 | 6.1 | 9.6 | 0.00 | 0.00 | 0.00 | 72 | 1023.1 |
| 20260502230049 | 47 | 271 | 6.1 | 9.6 | 0.00 | 0.02 | 0.00 | 73 | 1023.5 |